Regional Weather Roundup
Issued by NWS

Home | Current Version | Previous Version | Graphics & Text | Print | Product List | Glossary On
Versions: 1 2 3 4 5 6 7 8 9 10 11 12 13 14 15 16 17 18 19 20 21 22 23 24 25 26 27 28 29 30 31 32 33 34 35 36 37 38 39 40 41 42 43 44 45 46 47 48 49 50
000
ASUS43 KOAX 221202
RWRNE

WEATHER ROUNDUP FOR NEBRASKA
NATIONAL WEATHER SERVICE OMAHA NE
700 AM CDT SUN OCT 22 2017

NOTES: SATELLITE DATA IS BEING USED TO AUGMENT CLOUD COVER ABOVE
       12000 FEET.
       "FAIR" INDICATES FEW OR NO CLOUDS BELOW 12,000 FEET WITH NO
       SIGNIFICANT WEATHER AND/OR OBSTRUCTIONS TO VISIBILITY.


NEZ001>004-019>022-054>056-221300-
NEBRASKA PANHANDLE

CITY           SKY/WX    TMP DP  RH WIND       PRES   REMARKS
SCOTTSBLUFF    CLEAR     32  19  58 CALM      30.08S
6HR MIN TEMP:  29; 6HR MAX TEMP:  46;

ALLIANCE       CLEAR     28  19  69 SW10      30.05F WCI  19
6HR MIN TEMP:  21; 6HR MAX TEMP:  30;

CHADRON        CLEAR     26  15  63 CALM      30.03R
6HR MIN TEMP:  22; 6HR MAX TEMP:  31;

GORDON         FAIR      31  21  65 SW8       30.03R WCI  24
6HR MIN TEMP:  24; 6HR MAX TEMP:  32;

KIMBALL        CLOUDY    31  20  64 W8        30.12R WCI  23
SIDNEY         CLOUDY    26  19  74 SW10      30.12R WCI  16
6HR MIN TEMP:  22; 6HR MAX TEMP:  37;

$$

NEZ057>060-069>072-079>082-221300-
SOUTHWEST NEBRASKA

CITY           SKY/WX    TMP DP  RH WIND       PRES   REMARKS
NORTH PLATTE   CLEAR     26  24  92 CALM      30.12R
6HR MIN TEMP:  25; 6HR MAX TEMP:  34;

IMPERIAL       CLEAR     32  22  66 W7        30.15R WCI  26
6HR MIN TEMP:  32; 6HR MAX TEMP:  43;

LEXINGTON      CLEAR     29  26  86 CALM      30.13S
MCCOOK         CLEAR     31  23  72 SW12      30.17R WCI  22
6HR MIN TEMP:  31; 6HR MAX TEMP:  37;

OGALLALA       CLEAR     31  24  75 W6        30.13R WCI  25
$$

NEZ005>010-023>029-035>040-094-221300-
NORTH CENTRAL NEBRASKA

CITY           SKY/WX    TMP DP  RH WIND       PRES   REMARKS
VALENTINE      CLEAR     29  25  85 SW7       30.03S WCI  22
6HR MIN TEMP:  27; 6HR MAX TEMP:  35;

AINSWORTH      CLEAR     35  28  74 SW8       30.05R WCI  28
BROKEN BOW     CLEAR     28  24  85 CALM      30.10R
6HR MIN TEMP:  26; 6HR MAX TEMP:  34;

O`NEILL        CLEAR     34  31  89 SW6       30.07S WCI  29
ORD            CLEAR     29  26  89 CALM      30.10R
6HR MIN TEMP:  28; 6HR MAX TEMP:  35;

THEDFORD       CLEAR     32  25  75 W5        30.08R WCI  28
$$

NEZ041-046>049-061>064-073>077-083>087-221300-
SOUTH CENTRAL NEBRASKA

CITY           SKY/WX    TMP DP  RH WIND       PRES   REMARKS
GRAND ISLAND   CLEAR     34  32  92 CALM      30.13R
6HR MIN TEMP:  34; 6HR MAX TEMP:  40;

AURORA         CLEAR     35  32  90 W6        30.12S WCI  30
HASTINGS       CLEAR     35  30  82 CALM      30.14R
6HR MIN TEMP:  35; 6HR MAX TEMP:  41;

HEBRON         PTCLDY    37  35  93 CALM      30.14S
HOLDREGE       CLEAR     33  27  81 W5        30.14R WCI  28
KEARNEY        CLEAR     32  27  81 SW3       30.13R
YORK           CLEAR     36  34  93 CALM      30.12S
$$

NEZ011>018-030>034-042>045-221300-
NORTHEAST NEBRASKA

CITY           SKY/WX    TMP DP  RH WIND       PRES   REMARKS
NORFOLK        CLEAR     34  31  88 CALM      30.09R
6HR MIN TEMP:  33; 6HR MAX TEMP:  39;

ALBION         CLEAR     30  28  94 CALM      30.11R
BLAIR          CLOUDY    43  38  83 W3        30.08R
COLUMBUS       CLEAR     33  31  92 NW3       30.12R
FREMONT        CLEAR     37  37  98 W5        30.11R WCI  33
TEKAMAH        PTCLDY    39  35  86 W5        30.09R
6HR MIN TEMP:  37; 6HR MAX TEMP:  45;

WAYNE          CLEAR     35  32  91 S3        30.08R
$$

NEZ050>053-065>068-078-088>093-221300-
SOUTHEAST NEBRASKA

CITY           SKY/WX    TMP DP  RH WIND       PRES   REMARKS
LINCOLN        CLEAR     41  36  82 CALM      30.13R
6HR MIN TEMP:  41; 6HR MAX TEMP:  50;

OMAHA EPPLEY   CLOUDY    45  37  73 W3        30.09R
6HR MIN TEMP:  45; 6HR MAX TEMP:  52;

BEATRICE       CLEAR     39  37  92 W3        30.13R
FALLS CITY     PTCLDY    45  41  86 W7        30.08R
6HR MIN TEMP:  45; 6HR MAX TEMP:  52;

NEBRASKA CITY  CLEAR     44  42  93 W8        30.09R
PLATTSMOUTH    CLEAR     44  40  88 W7        30.09R
$$

NEZ044-045-051>053-067-221300-
OMAHA AREA

CITY           SKY/WX    TMP DP  RH WIND       PRES   REMARKS
OMAHA EPPLEY   CLOUDY    45  37  73 W3        30.09R
6HR MIN TEMP:  45; 6HR MAX TEMP:  52;

BLAIR          CLOUDY    43  38  83 W3        30.08R
FREMONT        CLEAR     37  37  98 W5        30.11R WCI  33
MILLARD        CLEAR     43  41  93 CALM      30.10R
OFFUTT AFB     CLEAR     42  39  89 CALM      30.09R
PLATTSMOUTH    CLEAR     44  40  88 W7        30.09R
WAHOO          FAIR      44  36  73 W10       30.11R
$$




USA.gov is the U.S. government's official web portal to all federal, state and local government web resources and services.